Tracking 19709 objects as of 18-Jun-2019
HD Live streaming from Space Station
objects crossing your sky now

DELTA 1 DEB

Track DELTA 1 DEB now!
10-day predictions


NORAD ID: 12170
Int'l Code: 1978-026K
Perigee: 804.0 km
Apogee: 869.1 km
Inclination: 98.9 °
Period: 101.5 minutes
Semi major axis: 7207 km
RCS: 0.045 m2 (small)
Launch date: March 5, 1978
Source: United States (US)
Launch site: AIR FORCE WESTERN TEST RANGE (AFWTR)

Note: This is SATELLITE DEBRIS
aabbcc
Your satellite tracking list
Your tracking list is empty




NASA's NSSDC Master Catalog

Two Line Element Set (TLE):
1 12170U 78026K   19167.92697951 +.00000090 +00000-0 +64034-4 0  9996
2 12170 098.8560 148.6782 0045155 152.2273 261.7836 14.18805008980136
Source of the keplerian elements: AFSPC